Chauncey, GA

8:56 PM EDT on August 27, 2016 (GMT -0400)
Heart Of Georgia Regional

Weather History for KEZM - March, 2014

Change the Weather History Date:

Wednesday, March 12, 2014

  Actual Average Record
Temperature  
Mean Temperature 64 °F -  
Max Temperature 76 °F 70 °F 84 °F (2016)
Min Temperature 51 °F 45 °F 47 °F (2013)
Degree Days  
Heating Degree Days 2    
Growing Degree Days 14 (Base 50)    
Moisture  
Dew Point 58 °F    
Average Humidity 79    
Maximum Humidity 100    
Minimum Humidity 52    
Precipitation  
Precipitation 0.00 in - - ()
Sea Level Pressure  
Sea Level Pressure 29.73 in    
Wind  
Wind Speed 7 mph (WSW)    
Max Wind Speed 17 mph    
Max Gust Speed 33 mph    
Visibility 9 miles    
Events Rain    
Averages and records for this station are not official NWS values.
T = Trace of Precipitation, MM = Missing Value Source: NWS Daily Summary

Daily Weather History Graph

Daily Weather History Graph

Search for Another Location

Airport or City:

Trip Planner

Search our weather history database for the weather conditions in past years. The results will help you decide how hot, cold, wet, or windy it might be!

Date:

Astronomy

Mar. 12, 2014 Rise Set
Actual Time 7:46 AM EDT 7:38 PM EDT
Civil Twilight 7:22 AM EDT 8:02 PM EDT
Nautical Twilight 6:53 AM EDT 8:31 PM EDT
Astronomical Twilight 6:25 AM EDT 8:59 PM EDT
Moon 4:17 PM EDT (3/12) 5:07 AM EDT (3/12)
Length of Visible Light 12h 40m
Length of Day
11h 51m
Waxing Gibbous, 85% of the Moon is Illuminated
Mar 12
Waxing Gibbous
Mar 16
Full
Mar 23
Last Quarter
Mar 30
New
Apr 7
First Quarter

Hourly Weather History & Observations

Time (EDT) Temp. Dew Point Humidity Pressure Visibility Wind Dir Wind Speed Gust Speed Precip Events Conditions
12:15 AM 69.8 °F 58.1 °F 66% 29.80 in 10.0 mi SSW 4.6 mph - N/A   Overcast
12:35 AM 69.3 °F 58.1 °F 68% 29.80 in 10.0 mi SSW 5.8 mph - N/A   Overcast
12:55 AM 68.9 °F 57.6 °F 67% 29.80 in 10.0 mi SW 8.1 mph - N/A   Overcast
1:15 AM 68.9 °F 54.9 °F 61% 29.80 in 10.0 mi SW 9.2 mph - N/A   Overcast
1:35 AM 66.2 °F 54.0 °F 65% 29.80 in 10.0 mi WSW 10.4 mph - N/A   Drizzle
1:55 AM 63.1 °F 56.3 °F 78% 29.80 in 10.0 mi WSW 5.8 mph - N/A Rain Light Rain
2:15 AM 61.3 °F 57.9 °F 89% 29.81 in 10.0 mi SW 3.5 mph - N/A Rain Rain
2:35 AM 60.1 °F 59.4 °F 97% 29.80 in 7.0 mi SW 3.5 mph - N/A Rain Rain
2:55 AM 59.9 °F 59.9 °F 100% 29.79 in 7.0 mi Calm Calm - N/A Rain Light Rain
3:15 AM 59.9 °F 59.9 °F 100% 29.78 in 7.0 mi Calm Calm - N/A Rain Rain
3:35 AM 59.9 °F 59.9 °F 100% 29.75 in 7.0 mi SE 3.5 mph - N/A Rain Light Rain
3:55 AM 60.1 °F 60.1 °F 100% 29.74 in 7.0 mi SE 3.5 mph - N/A Rain Light Rain
4:15 AM 60.1 °F 60.1 °F 100% 29.73 in 7.0 mi Calm Calm - N/A Rain Light Rain
4:35 AM 60.3 °F 60.3 °F 100% 29.72 in 7.0 mi Calm Calm - N/A Rain Light Rain
4:55 AM 60.3 °F 60.3 °F 100% 29.72 in 7.0 mi Calm Calm - N/A   Overcast
5:15 AM 60.8 °F 60.8 °F 100% 29.71 in 5.0 mi South 3.5 mph - N/A Rain Rain
5:35 AM 60.8 °F 60.8 °F 100% 29.70 in 4.0 mi SSE 4.6 mph - N/A   Drizzle
5:55 AM 61.0 °F 61.0 °F 100% 29.70 in 7.0 mi SSE 3.5 mph - N/A   Overcast
6:15 AM 61.2 °F 61.2 °F 100% 29.70 in 7.0 mi Calm Calm - N/A   Overcast
6:35 AM 61.3 °F 61.3 °F 100% 29.71 in 7.0 mi Calm Calm - N/A   Overcast
6:55 AM 62.1 °F 62.1 °F 100% 29.71 in 7.0 mi SW 4.6 mph - N/A   Overcast
7:15 AM 62.4 °F 62.4 °F 100% 29.72 in 7.0 mi SW 3.5 mph - N/A   Overcast
7:35 AM 62.6 °F 62.6 °F 100% 29.72 in 3.0 mi SSW 4.6 mph - N/A Rain Rain
7:55 AM 62.8 °F 62.8 °F 100% 29.71 in 7.0 mi South 6.9 mph - N/A   Overcast
8:15 AM 63.0 °F 63.0 °F 100% 29.70 in 7.0 mi SSW 6.9 mph - N/A   Overcast
8:35 AM 63.5 °F 63.5 °F 100% 29.70 in 10.0 mi SW 5.8 mph - N/A   Overcast
8:55 AM 64.0 °F 64.0 °F 100% 29.71 in 5.0 mi SSW 4.6 mph - N/A Rain Light Rain
9:15 AM 64.8 °F 64.8 °F 100% 29.71 in 7.0 mi SSW 8.1 mph - N/A   Overcast
9:35 AM 64.9 °F 64.9 °F 100% 29.70 in 10.0 mi SW 5.8 mph - N/A   Overcast
9:55 AM 65.5 °F 65.5 °F 100% 29.71 in 10.0 mi WSW 4.6 mph - N/A   Overcast
10:15 AM 66.4 °F 66.2 °F 99% 29.71 in 10.0 mi WSW 5.8 mph - N/A   Overcast
10:35 AM 67.1 °F 66.7 °F 99% 29.71 in 10.0 mi SW 9.2 mph - N/A   Overcast
10:55 AM 67.3 °F 66.7 °F 98% 29.71 in 10.0 mi WSW 8.1 mph - N/A   Overcast
11:15 AM 68.4 °F 67.1 °F 96% 29.71 in 10.0 mi WSW 9.2 mph - N/A   Overcast
11:35 AM 68.5 °F 66.7 °F 94% 29.71 in 10.0 mi West 9.2 mph - N/A   Overcast
11:55 AM 69.1 °F 66.7 °F 92% 29.71 in 10.0 mi West 10.4 mph - N/A   Overcast
12:15 PM 69.4 °F 66.9 °F 92% 29.70 in 10.0 mi West 8.1 mph - N/A   Overcast
12:35 PM 70.9 °F 66.0 °F 85% 29.70 in 10.0 mi West 10.4 mph - N/A   Overcast
12:55 PM 71.6 °F 65.5 °F 81% 29.69 in 10.0 mi West 11.5 mph 16.1 mph N/A   Overcast
1:15 PM 73.0 °F 64.4 °F 74% 29.68 in 10.0 mi WSW 12.7 mph 23.0 mph N/A   Overcast
1:35 PM 72.5 °F 64.4 °F 76% 29.68 in 10.0 mi West 13.8 mph 21.9 mph N/A   Overcast
2:15 PM 75.6 °F 63.7 °F 66% 29.66 in 10.0 mi West 15.0 mph 24.2 mph N/A   Overcast
2:35 PM 73.9 °F 63.1 °F 69% 29.66 in 10.0 mi West 11.5 mph 19.6 mph N/A   Overcast
2:55 PM 74.1 °F 62.6 °F 67% 29.66 in 10.0 mi West 12.7 mph 24.2 mph N/A   Overcast
3:15 PM 75.2 °F 61.5 °F 62% 29.64 in 10.0 mi WNW 15.0 mph 27.6 mph N/A   Overcast
3:35 PM 74.8 °F 61.3 °F 63% 29.64 in 10.0 mi West 16.1 mph 23.0 mph N/A   Overcast
3:55 PM 76.1 °F 61.5 °F 60% 29.63 in 10.0 mi West 11.5 mph 24.2 mph N/A   Mostly Cloudy
4:15 PM 75.0 °F 61.3 °F 62% 29.64 in 10.0 mi West 13.8 mph 20.7 mph N/A   Mostly Cloudy
4:35 PM 74.3 °F 62.2 °F 66% 29.64 in 10.0 mi West 12.7 mph 17.3 mph N/A   Overcast
4:55 PM 75.2 °F 62.1 °F 64% 29.63 in 10.0 mi West 10.4 mph 20.7 mph N/A   Overcast
5:15 PM 75.2 °F 61.5 °F 62% 29.64 in 10.0 mi West 12.7 mph 24.2 mph N/A   Mostly Cloudy
5:35 PM 75.2 °F 60.8 °F 61% 29.64 in 10.0 mi West 15.0 mph 24.2 mph N/A   Mostly Cloudy
5:55 PM 74.7 °F 61.2 °F 63% 29.64 in 10.0 mi West 11.5 mph 21.9 mph N/A   Scattered Clouds
6:15 PM 74.5 °F 60.3 °F 61% 29.63 in 10.0 mi West 13.8 mph 24.2 mph N/A   Scattered Clouds
6:35 PM 74.3 °F 60.8 °F 63% 29.63 in 10.0 mi West 9.2 mph 19.6 mph N/A   Scattered Clouds
6:55 PM 73.4 °F 61.0 °F 65% 29.63 in 10.0 mi WSW 11.5 mph 21.9 mph N/A   Scattered Clouds
7:15 PM 72.7 °F 61.0 °F 67% 29.64 in 10.0 mi West 9.2 mph 19.6 mph N/A   Mostly Cloudy
7:35 PM 70.0 °F 57.7 °F 65% 29.68 in 10.0 mi WNW 17.3 mph 33.4 mph N/A   Overcast
7:55 PM 67.8 °F 56.1 °F 66% 29.71 in 10.0 mi WNW 12.7 mph 25.3 mph N/A   Mostly Cloudy
8:15 PM 66.2 °F 53.8 °F 64% 29.72 in 10.0 mi WNW 16.1 mph 27.6 mph N/A   Scattered Clouds
8:35 PM 64.6 °F 49.8 °F 59% 29.76 in 10.0 mi NW 15.0 mph 33.4 mph N/A   Scattered Clouds
8:55 PM 61.5 °F 46.0 °F 57% 29.79 in 10.0 mi NW 12.7 mph 24.2 mph N/A   Scattered Clouds
9:15 PM 57.9 °F 43.0 °F 58% 29.83 in 10.0 mi NNW 16.1 mph 25.3 mph N/A   Scattered Clouds
9:35 PM 55.4 °F 41.2 °F 59% 29.85 in 10.0 mi NW 8.1 mph 24.2 mph N/A   Scattered Clouds
9:55 PM 54.1 °F 39.7 °F 58% 29.87 in 10.0 mi NW 10.4 mph 24.2 mph N/A   Clear
10:15 PM 53.4 °F 39.2 °F 59% 29.89 in 10.0 mi NW 9.2 mph 16.1 mph N/A   Clear
10:35 PM 52.7 °F 37.4 °F 56% 29.90 in 10.0 mi NW 12.7 mph 23.0 mph N/A   Clear
10:55 PM 52.5 °F 37.0 °F 56% 29.91 in 10.0 mi NW 11.5 mph 24.2 mph N/A   Clear
11:15 PM 52.0 °F 36.7 °F 56% 29.92 in 10.0 mi WNW 10.4 mph 18.4 mph N/A   Clear
11:35 PM 51.8 °F 35.1 °F 53% 29.93 in 10.0 mi NW 11.5 mph 17.3 mph N/A   Clear
11:55 PM 51.3 °F 34.0 °F 52% 29.94 in 10.0 mi NW 11.5 mph 21.9 mph N/A   Clear